Location: Cerda�ola
(41.4919°N, 2.1403°E)
Time: 01:28:17
(UTC+00:00)

ADEOS Rocket - Pass Details

Date: 29 March 2020
Orbit: 858 x 1307 km, 98.7° (Epoch: 30 May)

Event Time Altitude Azimuth Distance (km) Brightness Sun altitude
Rises 19:13:00 0° 7° (N) 4,044 6.3 -11.7°
Reaches altitude 10° 19:15:50 10° 2° (N) 3,014 5.7 -12.2°
Maximum altitude 19:22:10 44° 293° (WNW) 1,412 4.4 -13.3°
Drops below altitude 10° 19:27:54 10° 224° (SW) 2,709 5.7 -14.4°
Sets 19:30:20 0° 217° (SW) 3,598 6.2 -14.8°
